FW2487 Weather Reports


time (UTC)temp
F
wind
direction
speed
knots
gust
knots
rain 1hr
in
rain 24hr
in
rain mn
in
humidity
%
barometer
mb
20260503203115 83 55 6.1 13.9 0.00 0.00 0.00 29 1012.7
20260503201643 83 78 4.3 10.4 0.00 0.00 0.00 28 1012.9
20260503200036 83 89 3.5 8.7 0.00 0.00 0.00 28 1013.1
20260503194530 82 106 2.6 7.0 0.00 0.00 0.00 29 1013.3
20260503193032 82 104 3.5 9.6 0.00 0.00 0.00 29 1013.3
20260503191535 82 73 5.2 10.4 0.00 0.00 0.00 30 1013.4
20260503190034 81 87 4.3 8.7 0.00 0.00 0.00 32 1013.5
20260503184535 79 79 0.9 7.0 0.00 0.00 0.00 37 1013.7
20260503183034 77 315 1.7 6.1 0.00 0.00 0.00 42 1013.8
20260503181535 76 333 2.6 6.1 0.00 0.00 0.00 44 1013.9
20260503180036 76 334 1.7 5.2 0.00 0.00 0.00 45 1014.1
20260503173037 74 262 0.9 3.5 0.00 0.00 0.00 45 1014.4
20260503171535 73 309 0.0 3.5 0.00 0.00 0.00 46 1014.5
20260503110107 47 164 1.7 3.5 0.00 0.00 0.00 85 1014.9
20260503081534 50 102 0.0 2.6 0.00 0.00 0.00 82 1014.9
20260503071532 52 185 1.7 3.5 0.00 0.00 0.00 83 1014.9
20260503054605 56 185 2.6 5.2 0.00 0.00 0.00 79 1014.6
20260503053036 56 153 2.6 4.3 0.00 0.00 0.00 77 1014.5
20260503051536 57 112 0.0 1.7 0.00 0.00 0.00 75 1014.5
20260503050035 58 159 2.6 3.5 0.00 0.00 0.00 74 1014.5
20260503044535 58 190 0.9 3.5 0.00 0.00 0.00 73 1014.5
20260503043037 59 186 0.0 2.6 0.00 0.00 0.00 70 1014.4
20260503041536 61 198 0.9 3.5 0.00 0.00 0.00 68 1014.2
20260503040040 63 3 0.0 2.6 0.00 0.00 0.00 64 1014.0
20260503034533 64 95 0.0 1.7 0.00 0.00 0.00 60 1013.8
20260503033036 65 155 2.6 4.3 0.00 0.00 0.00 61 1013.5
20260503031643 66 164 1.7 4.3 0.00 0.00 0.00 64 1013.2
20260503030045 67 162 2.6 3.5 0.00 0.00 0.00 65 1012.9
20260503024610 68 157 1.7 3.5 0.00 0.00 0.00 63 1012.7
20260503023036 69 157 0.0 0.9 0.00 0.00 0.00 59 1012.6
20260503021534 71 165 0.9 2.6 0.00 0.00 0.00 57 1012.5
20260503013036 76 85 0.9 4.3 0.00 0.00 0.00 38 1012.5
20260503011534 77 93 1.7 6.1 0.00 0.00 0.00 38 1012.5
20260503010032 78 110 0.0 6.1 0.00 0.00 0.00 37 1012.5
20260503004535 77 86 0.9 3.5 0.00 0.00 0.00 35 1012.5
20260503003033 78 101 1.7 6.1 0.00 0.00 0.00 36 1012.4
20260503001641 78 57 2.6 8.7 0.00 0.00 0.00 36 1012.5
20260502234537 79 52 3.5 8.7 0.00 0.00 0.00 37 1012.7
20260502231536 80 43 7.0 13.9 0.00 0.00 0.00 35 1013.2
20260502223108 80 101 5.2 10.4 0.00 0.00 0.00 33 1013.3
20260502221533 78 71 4.3 12.2 0.00 0.00 0.00 38 1013.5
20260502214536 76 315 2.6 11.3 0.00 0.00 0.00 45 1013.8
20260502213035 75 292 1.7 5.2 0.00 0.00 0.00 48 1014.0
20260502211535 74 323 2.6 6.1 0.00 0.00 0.00 52 1014.2
20260502204534 70 304 1.7 5.2 0.00 0.00 0.00 56 1014.5